Reflectivity
-20 -20 -20 -20 -20 -20 -20 -20 -20 -20 -20 -20 -20 -1 5 -6 -14 -7 9 -20 -20 -20 -20 -4 43 16 12 -7 13 6 -20 -15 -20 6 -20 -20 -20 -20 -20 -20 -20 -20 -20
-20 -20 -20 -20 -20 -20 -20 -20 -20 -20 -20 -20 -20 -11 8 4 -16 -20 -20 25 -13 -20 -20 -19 20 30 27 15 1 -20 -20 -20 -20 -20 -20 -20 -20 -20 -20 -20 -20 -20 -20
-20 -20 -20 -20 -20 -20 -20 -20 -20 -20 -20 -20 2 -1 -5 7 7 -14 -20 24 -2 -20 -20 -20 -3 15 32 42 32 36 2 -10 -5 -16 -20 -20 -20 -20 -20 -20 -20 -20 -20
-20 -20 -20 -20 -20 -20 -20 -20 -20 -20 -20 -20 -17 3 7 -4 12 -20 -20 -16 8 -20 -20 -20 -19 8 6 7 28 21 -20 -7 -20 -20 -20 -20 -20 -20 -20 -20 -20 -20 -20
-20 -20 -20 -20 -20 -20 -20 -20 -20 -20 -20 -20 -20 -19 3 8 6 10 -20 6 -12 -8 -20 -20 -20 -20 -20 8 10 15 8 0 -20 -18 -20 -20 -20 -20 -20 -20 -20 -20 -20
-20 -20 -20 -20 -20 -20 -20 -20 -20 -20 -20 -20 -20 -9 3 -0 -14 4 -8 -20 -20 -20 -20 -20 -20 -20 -11 -3 -4 -4 29 -5 -14 -20 -20 -20 -20 -20 -20 -20 -20 -20 -20
-20 -20 -20 -20 -20 -20 -20 -20 -20 -20 -20 -0 -0 -8 -4 -20 1 5 9 -10 -14 -20 -20 -20 6 -20 -20 -3 -1 9 27 4 19 16 2 -20 -20 -20 -19 18 -10 -20 -20
-20 -20 -20 -20 -20 -20 -20 -20 -20 -20 4 25 18 -1 -3 1 7 9 17 6 -20 -20 -20 -20 -20 -20 -20 -10 -18 -20 -20 -20 19 3 8 5 -20 -20 -20 -20 20 -20 -20
-20 -20 -20 -20 -20 -20 -20 -20 -20 -11 24 26 -2 1 1 -5 17 20 15 17 -8 -20 -20 -15 -20 5 5 -20 -20 -20 21 -15 3 -4 -20 -20 -20 -20 -20 30 -20 -13 -20
-20 -20 -20 -20 -20 -20 -20 -20 13 -9 33 30 30 27 26 27 30 13 13 -20 -19 -16 -15 35 22 34 26 -20 -20 -20 -20 -20 -20 -20 -20 3 3 -2 5 -20 1 -20 -20
-20 -20 -20 -20 -19 -13 -20 -20 -20 13 39 21 28 14 8 24 28 12 8 34 34 23 8 -13 -9 10 -4 -15 -20 -20 -20 -20 1 -20 -20 -20 -20 -20 -20 -20 -16 -4 -6
-20 -20 -20 -20 2 1 -20 -20 -20 4 29 32 19 19 11 22 30 28 24 22 12 8 32 13 28 34 33 26 22 -10 -19 12 -4 9 7 -20 -20 -13 -12 -20 -20 2 -20
-20 -20 -20 -20 -2 -17 -20 -10 -20 9 22 32 24 1 20 8 27 22 31 31 31 26 23 17 12 -0 6 -5 3 5 12 -5 1 14 19 13 -0 20 -20 -20 23 -15 -19
-20 -20 -20 -20 -5 19 16 -19 -20 -10 21 25 29 26 19 27 38 42 36 27 28 25 33 26 3 5 27 26 24 25 9 -2 -5 23 8 -12 24 -4 12 38 35 30 36
-20 -20 -20 -20 -19 22 21 8 -20 -20 21 12 28 28 27 31 35 45 42 38 30 27 23 19 21 -13 -15 16 18 34 32 28 29 30 31 30 12 -15 22 26 33 33 28
-20 -20 -20 -20 -20 -2 -2 10 1 -8 13 23 9 19 17 35 32 16 10 22 18 12 20 -11 -19 -19 -6 14 35 37 37 30 10 24 32 35 35 33 24 32 34 25 31
-20 -20 -20 -20 -3 -8 -20 -19 -20 -20 -3 15 14 10 14 10 23 23 12 3 -14 -20 4 -19 -20 -20 -20 -18 13 34 31 27 31 34 36 26 24 32 35 34 35 34 23
-20 -20 -20 -20 -15 -6 -20 -11 -20 -20 -20 -14 8 4 10 14 9 -1 10 -12 -19 -20 -20 -20 -20 -20 -20 -20 -6 8 24 14 14 12 -0 -3 1 -9 -6 20 19 14 14
-20 -20 -20 -20 -20 7 -14 -20 -20 -20 -20 -17 -13 -14 -3 2 5 8 1 -3 5 -19 -20 -20 -20 -20 -20 -20 -20 -20 -11 5 11 11 13 9 11 -13 -19 -0 9 9 1
-20 -20 -20 -13 -16 -18 -20 -20 -20 -18 7 1 -3 -20 -20 -19 -20 -20 -9 -20 -20 -20 -20 -20 -20 -20 -20 -20 -20 -20 -20 -20 -19 -9 -10 8 12 -1 -12 -7 1 -0 -17
-20 -20 -20 10 -20 -20 -20 -20 -20 -20 -20 -20 -20 -20 -20 -20 -20 -20 -20 -20 -20 -20 -20 -20 -20 -20 -20 -19 -20 -20 -20 -20 -20 -20 -20 -18 -19 -20 -20 -14 -20 -20 -6
-20 -20 -20 -20 -20 -20 -20 -20 -20 -20 -20 -20 -20 -20 -20 -20 -20 -20 -20 -20 -20 -20 -20 -20 -20 -20 -20 -20 -20 -20 -11 -20 -20 -3 -19 -6 -18 -17 -20 -20 -20 -20 -20
-20 -20 -20 -20 -20 -20 -20 -20 -20 -20 -20 -20 -20 -20 -20 -20 -20 -20 -20 -20 -20 -20 -20 -20 -20 -20 -20 -20 -20 -20 -20 -20 -20 -20 -4 -16 -20 -14 -20 -20 -11 3 -16
-20 -20 -20 -20 -5 -20 -20 -20 -20 -20 -20 -20 -20 -20 -20 -20 -20 -20 -20 -20 -20 -20 -20 -20 -20 -20 -20 -20 -20 -20 -20 -20 -20 -20 -20 -20 -20 -7 -20 -20 -20 -15 -20
-20 -20 -20 -20 -20 -20 -20 -20 -20 -20 -20 -20 -20 -20 -20 -20 -20 -20 -20 -20 -20 -20 -20 -20 -20 -20 -20 -20 -20 -20 -1 5 -12 2 -20 -20 -20 -20 -20 -20 -20 -20 -20
-20 -20 -20 -20 -20 -20 -20 -20 -20 -20 -20 -20 -20 -20 -20 -20 -20 -20 -20 -20 -20 -20 -20 -20 -20 -20 -20 -20 -18 2 -15 -11 -11 -20 -17 -20 -20 -20 -20 -20 -20 -20 -20
Wind_Speed
5 5 5 6 7 7 8 9 9 10 10 11 13 13 14 14 13 12 13 12 14 14 13 10 5 6 7 6 7 9 9 9 12 8 8 6 6 7 7 6 7 7 6
6 5 6 7 7 8 9 11 11 11 11 12 13 14 15 15 15 14 14 13 15 13 12 10 11 7 9 12 11 14 12 11 10 12 7 6 8 7 7 7 6 6 7
5 5 6 7 7 9 10 11 11 12 13 13 13 14 15 16 15 15 14 11 14 15 16 16 18 17 16 14 15 15 12 10 11 8 9 4 7 4 5 6 6 7 6
6 6 7 8 9 9 10 11 12 12 14 14 15 16 16 16 16 15 14 13 14 16 16 16 15 18 22 23 20 22 15 12 11 10 9 7 5 4 5 5 7 5 6
7 7 9 9 9 10 11 11 11 13 14 17 17 17 17 15 13 14 13 14 14 15 16 14 14 17 18 11 7 10 12 11 9 9 10 7 7 5 6 4 7 6 4
6 8 9 9 10 11 12 12 12 14 16 18 19 16 14 13 19 18 17 14 14 14 14 13 12 15 12 11 14 17 16 13 12 9 8 10 11 7 6 6 5 4 5
6 8 9 10 11 13 12 12 13 15 19 21 19 14 14 15 19 18 22 15 14 14 14 11 10 9 11 10 11 12 11 14 13 11 11 11 9 9 8 8 8 6 6
8 8 9 10 12 13 11 11 13 14 19 21 11 11 12 11 17 17 21 17 12 11 11 10 10 10 11 12 12 14 12 10 13 10 11 11 10 10 10 8 7 6 4
7 8 9 10 12 12 11 10 10 14 20 18 8 9 10 12 13 17 16 11 11 11 10 10 11 11 12 16 12 11 10 9 8 13 14 12 11 11 9 6 5 5 5
6 9 9 10 10 11 9 8 5 11 16 16 14 9 10 8 6 6 11 7 10 8 8 10 15 12 14 14 11 8 8 8 7 8 8 9 9 8 12 11 7 8 5
7 9 8 8 8 8 8 7 7 7 11 14 16 14 13 11 8 8 9 6 5 5 6 6 6 14 12 14 12 8 11 6 8 8 8 7 8 8 7 9 9 9 6
7 8 8 7 6 5 6 7 7 5 9 12 12 12 11 12 15 13 4 7 5 4 3 3 3 10 13 12 9 10 12 9 7 7 7 7 7 7 8 8 9 7 3
7 7 8 8 5 6 6 7 5 5 4 6 8 10 12 11 11 21 10 10 8 4 4 7 10 8 7 5 1 6 7 5 7 7 6 4 3 5 6 5 5 4 4
6 8 8 8 8 6 5 4 4 5 5 5 6 7 9 10 10 8 9 4 7 7 6 6 7 8 9 5 5 4 3 3 1 2 3 4 3 4 4 3 2 2 2
5 6 8 5 5 3 3 4 4 1 1 3 3 3 5 9 7 10 9 7 6 7 6 7 7 7 8 10 10 10 7 7 5 4 4 3 5 5 3 2 3 3 3
4 4 6 4 5 3 3 4 2 3 3 4 5 5 1 7 15 15 8 5 10 11 6 6 6 6 6 8 8 6 6 9 6 6 7 5 6 5 4 3 3 3 4
5 5 4 4 3 3 3 3 3 3 4 2 8 9 8 9 12 10 9 9 12 7 5 5 5 5 5 5 4 3 3 3 2 5 3 3 3 3 3 4 2 2 3
4 8 4 3 2 1 2 2 1 2 2 3 5 8 11 14 16 18 15 7 8 8 6 7 7 7 6 5 5 4 4 3 4 4 3 3 4 4 3 3 3 2 2
2 3 2 2 2 1 3 3 2 3 5 5 4 5 8 11 8 15 15 10 7 9 8 8 7 7 6 5 5 5 6 5 4 4 4 4 4 3 3 2 2 1 3
2 2 1 1 2 3 3 4 5 5 6 6 6 7 6 7 12 10 10 9 9 9 9 8 8 7 7 6 6 6 6 7 6 5 5 4 4 3 2 1 0 1 1
2 2 4 4 4 3 4 5 5 7 6 6 6 6 9 8 7 8 8 8 8 8 8 7 7 7 7 6 6 7 7 7 7 6 6 6 6 5 5 4 3 3 2
4 4 4 4 4 5 5 6 6 7 7 7 6 7 10 7 7 7 8 8 7 7 6 6 7 7 6 7 7 6 7 8 6 6 6 6 6 7 7 6 6 4 4
5 6 6 5 5 7 7 6 7 7 7 7 6 7 7 7 6 6 7 7 7 7 6 6 5 5 5 6 6 6 6 5 5 4 4 6 6 6 6 5 5 6 5
6 7 7 6 6 7 7 6 6 9 8 7 6 6 6 6 6 7 6 6 6 6 6 6 5 5 4 5 5 5 5 5 4 4 5 4 5 6 5 6 6 7 6
6 7 8 7 6 6 7 8 8 7 7 7 6 6 5 6 6 7 7 7 6 7 8 7 5 5 4 5 5 5 5 5 6 6 4 5 6 6 5 4 5 5 6
8 8 7 6 6 6 7 7 7 6 6 5 5 5 4 4 5 5 6 6 6 6 8 7 8 8 5 3 3 3 4 4 5 5 4 4 4 4 5 6 7 6 7
Wind_Direction
314 295 299 305 300 303 301 293 283 279 274 276 276 268 256 250 240 224 221 217 210 215 211 201 161 232 237 229 231 232 219 212 237 254 254 218 220 226 243 231 245 249 251
271 300 301 297 293 296 288 283 286 283 281 269 272 269 261 250 241 228 221 207 210 206 188 164 179 173 218 237 233 230 222 212 223 238 242 212 220 215 238 237 240 240 252
316 299 296 288 283 285 286 291 291 288 289 285 274 268 266 256 244 227 220 209 188 194 188 196 206 211 198 208 223 218 214 211 217 229 238 196 228 209 226 247 247 251 245
312 305 297 290 285 284 284 285 285 284 283 281 276 270 261 260 250 236 215 202 191 211 210 214 213 208 215 219 207 209 196 194 209 222 237 227 215 201 204 226 246 235 250
301 302 292 289 284 282 279 275 279 284 281 278 280 269 261 256 254 240 215 203 199 206 215 217 215 219 220 236 246 226 210 192 196 211 228 220 220 207 212 207 235 252 251
291 290 288 288 291 285 283 286 290 293 290 284 277 261 252 252 253 231 212 209 203 209 222 225 213 209 204 206 220 217 209 199 204 203 213 219 225 218 217 218 222 229 261
291 293 298 299 297 294 297 300 296 305 304 292 275 254 245 252 249 228 209 217 214 217 216 210 210 211 197 199 221 239 239 222 211 207 221 217 219 209 211 216 212 211 225
301 296 304 311 306 304 305 303 309 315 317 304 264 254 251 256 246 220 205 216 214 212 210 204 204 201 194 197 199 214 224 221 222 226 223 222 217 210 203 222 209 208 235
288 304 310 309 307 304 304 308 313 332 338 328 286 282 272 266 236 222 207 203 212 211 204 208 210 203 205 201 200 204 214 216 201 219 231 232 205 196 189 181 203 189 234
307 304 302 303 307 300 302 307 304 348 337 344 343 352 336 312 359 280 203 200 205 201 197 205 209 207 198 187 204 190 219 231 206 222 225 236 239 229 198 208 202 207 200
292 296 302 299 302 294 316 326 315 318 339 1 348 359 6 357 343 323 198 209 212 191 203 211 211 206 196 198 198 199 218 179 214 220 225 220 208 214 221 208 213 211 197
289 297 293 285 291 313 341 340 325 325 12 351 346 355 10 2 8 353 265 231 189 184 189 164 189 201 213 216 205 233 232 217 230 218 219 224 214 209 216 199 196 183 177
300 300 301 288 317 358 349 349 340 333 336 6 349 352 353 348 5 358 340 71 63 66 65 89 89 80 77 65 175 243 229 216 233 227 212 198 182 186 149 143 179 147 169
303 303 318 321 341 350 348 332 332 344 352 6 350 348 344 3 345 352 354 56 80 82 92 69 74 93 92 53 336 13 38 48 81 166 154 127 130 113 129 125 122 152 206
293 299 288 309 323 320 293 295 337 40 284 328 325 351 343 342 345 323 319 349 30 23 67 66 64 61 60 72 50 16 26 37 33 37 55 62 85 78 51 70 135 150 175
282 288 285 312 300 323 320 319 171 311 349 21 338 352 2 281 316 309 316 21 38 22 56 69 68 69 70 84 73 64 35 33 40 40 35 63 78 60 67 21 17 84 103
248 278 286 299 314 358 341 318 358 276 263 38 2 12 30 310 325 4 5 23 39 38 53 41 52 62 70 71 95 97 66 74 1 69 48 42 87 93 98 95 72 64 96
277 267 267 284 259 298 304 8 17 13 17 19 32 39 16 6 21 23 360 54 34 28 49 50 48 37 39 53 64 52 56 40 61 42 48 51 73 81 78 91 79 96 114
264 268 315 255 197 34 22 38 60 59 50 36 19 24 4 350 16 38 36 50 31 32 26 39 33 37 35 39 50 62 59 44 34 41 38 21 32 53 63 34 84 71 127
185 328 354 359 18 30 43 72 86 82 71 45 46 23 6 34 38 31 35 37 41 43 34 33 28 32 35 32 35 45 49 40 35 38 32 13 2 1 20 354 357 262 286
99 55 70 55 38 43 63 64 75 92 80 63 56 29 22 57 48 44 42 40 39 40 39 38 29 25 31 29 56 62 60 49 40 33 31 25 30 33 4 339 291 260 274
96 87 70 78 71 65 54 59 68 68 69 78 66 45 34 58 53 46 43 42 41 43 40 47 49 45 39 36 42 46 46 50 37 31 31 27 20 21 22 19 3 3 358
101 97 84 71 67 65 63 58 61 66 68 65 59 57 51 51 51 46 40 30 26 28 27 33 41 45 43 49 50 54 60 49 33 13 29 25 26 18 13 8 1 346 350
91 86 84 67 63 69 72 70 65 57 61 61 58 52 49 44 41 35 27 16 16 17 17 22 27 33 39 43 47 44 37 16 13 15 16 13 13 8 3 354 347 338 332
79 76 71 74 78 77 75 69 67 66 59 50 47 42 35 38 39 36 31 27 25 22 16 8 1 6 23 28 31 31 28 16 27 348 10 8 5 1 360 348 346 334 336
79 81 86 88 83 82 84 79 69 62 59 50 46 41 37 35 33 31 28 26 16 9 3 359 357 352 332 338 357 11 4 14 17 10 353 357 347 336 335 322 321 315 315